Regional Weather Roundup
Issued by NWS Charleston, WV

Home | Current Version | Previous Version | Text Only | Print | Product List | Glossary On
Versions: 1 2 3 4 5 6 7 8 9 10 11 12 13 14 15 16 17 18 19 20 21 22 23 24 25 26 27 28 29 30 31 32 33 34 35 36 37 38 39 40 41 42 43 44 45 46 47 48 49 50
000
ASUS41 KRLX 062310
RWRRLX
West Virginia Regional Weather Roundup
National Weather Service Charleston WV
700 PM EDT WED MAY 06 2015

Note: "fair" indicates few or no clouds below 12,000 feet with no
significant weather and/or obstructions to visibility.

WVZ003-070000-
Northern Panhandle of West Virginia

CITY           SKY/WX    TMP DP  RH WIND       PRES   REMARKS
WHEELING       MOSUNNY   79  56  45 NW7       30.13S
$$

WVZ009-070000-
Northwest West Virginia

CITY           SKY/WX    TMP DP  RH WIND       PRES   REMARKS
PARKERSBURG    SUNNY     79  54  41 W5        30.13F
$$

WVZ006-070000-
Western West Virginia

CITY           SKY/WX    TMP DP  RH WIND       PRES   REMARKS
HUNTINGTON     SUNNY     83  52  34 CALM      30.09F
$$

WVZ015-070000-
West Central West Virginia

CITY           SKY/WX    TMP DP  RH WIND       PRES   REMARKS
CHARLESTON     MOSUNNY   86  50  28 CALM      30.09F
$$

WVZ022-031-070000-
North Central West Virginia

CITY           SKY/WX    TMP DP  RH WIND       PRES   REMARKS
CLARKSBURG     PTSUNNY   79  57  46 N3        30.11F
MORGANTOWN     MOSUNNY   82  50  32 N6        30.13S
$$

WVZ025-035-042-045-070000-
Southern West Virginia

CITY           SKY/WX    TMP DP  RH WIND       PRES   REMARKS
BECKLEY        MOSUNNY   76  45  33 N9        30.18F
LOGAN            N/A     82  52  34 N5        30.10S
BLUEFIELD      MOSUNNY   72  55  55 S7        30.21S
LEWISBURG      PTSUNNY   73  53  47 CALM      30.19S
$$

WVZ047-070000-
Northern Mountains of West Virginia

CITY           SKY/WX    TMP DP  RH WIND       PRES   REMARKS
ELKINS         MOSUNNY   80  49  33 NW8       30.15F
$$

WVZ052-070000-
Eastern Panhandle of West Virginia

CITY           SKY/WX    TMP DP  RH WIND       PRES   REMARKS
MARTINSBURG    MOSUNNY   73  62  68 E8        30.15R
PETERSBURG     LGT RAIN  77  55  45 SE6       30.13S
$$



USA.gov is the U.S. government's official web portal to all federal, state and local government web resources and services.